Location: Madrid
(40.4167°N, 3.7036°W)
Time: 03:28:41
(UTC+00:00)

ISS - Pass Details

Date: 23 February 2026
Orbit: 417 x 426 km, 51.6° (Epoch: 16 March)

Event Time Altitude Azimuth Distance (km) Brightness Sun altitude
Exits shadow 06:15:59 - 319° (NW) 1,895 -0.9 -8.6°
Reaches altitude 10° 06:17:30 10° 337° (NNW) 1,499 -1.2 -8.4°
Maximum altitude 06:19:15 13° 9° (N) 1,306 -1.2 -8.0°
Drops below altitude 10° 06:21:01 10° 40° (NE) 1,497 -0.5 -7.7°
Sets 06:23:58 0° 69° (ENE) 2,359 1.3 -7.1°
